Location: Jewell
(31.5029°N, 97.1961°W)
Time: 23:07:09
(UTC+00:00)

DIWATA 2B (PO-101) - Visible Passes

Search period start: 15 February 2026 00:00
Search period end: 25 February 2026 00:00
Orbit: 561 x 574 km, 98.1° (Epoch: 15 February)

Date Brightness Start Highest point End Pass type
(mag) Time Alt. Az. Time Alt. Az. Time Alt. Az.
15 Feb ? 01:33:09 10° NNW 01:36:33 26° WNW 01:39:55 10° SW visible
15 Feb ? 12:14:29 10° SSE 12:18:33 87° W 12:22:38 10° NNW visible
16 Feb ? 01:34:12 10° NNW 01:37:34 26° WNW 01:40:55 10° SW visible
16 Feb ? 12:15:30 10° SSE 12:19:34 85° WSW 12:23:40 10° NNW visible
17 Feb ? 01:35:16 10° NNW 01:38:36 25° WNW 01:41:55 10° SW visible
17 Feb ? 12:16:32 10° S 12:20:36 83° W 12:24:41 10° NNW visible
18 Feb ? 01:36:19 10° NNW 01:39:37 25° WNW 01:42:54 10° SW visible
18 Feb ? 12:17:34 10° S 12:21:37 81° WSW 12:25:43 10° NNW visible
19 Feb ? 01:37:22 10° NNW 01:40:38 24° WNW 01:43:53 10° SW visible
19 Feb ? 12:18:36 10° S 12:22:40 79° W 12:26:45 10° NNW visible
20 Feb ? 01:38:26 10° NNW 01:41:40 24° WNW 01:44:52 10° SW visible
20 Feb ? 12:19:37 10° S 12:23:42 77° W 12:27:46 10° NNW visible
21 Feb ? 01:39:29 10° NNW 01:42:40 23° WNW 01:45:51 10° SW visible
21 Feb ? 12:20:40 10° S 12:24:43 75° WSW 12:28:47 10° NNW visible
22 Feb ? 01:40:32 10° NNW 01:43:42 23° WNW 01:46:51 10° WSW visible
22 Feb ? 12:21:41 10° S 12:25:44 73° WSW 12:29:48 10° NNW visible
23 Feb ? 01:41:35 10° NNW 01:44:43 22° WNW 01:47:50 10° WSW visible
23 Feb ? 12:22:43 10° S 12:26:46 71° W 12:30:49 10° NNW visible
24 Feb ? 01:42:38 10° NNW 01:45:44 22° WNW 01:48:48 10° WSW visible
24 Feb ? 12:23:44 10° S 12:27:47 69° WSW 12:31:50 10° NNW visible
